Skrydstrup, Denmark

11:23 PM CET on March 25, 2017 (GMT +0100)
Vojens-Skrydstrup Air Base

Weather History for EKSP - February, 2014

Change the Weather History Date:

Wednesday, February 19, 2014

  Actual Average Record
Temperature  
Mean Temperature 42 °F -  
Max Temperature 45 °F 39 °F 46 °F (2008)
Min Temperature 40 °F 30 °F 21 °F (2011)
Degree Days  
Heating Degree Days 22    
Moisture  
Dew Point 41 °F    
Average Humidity 94    
Maximum Humidity 100    
Minimum Humidity 88    
Precipitation  
Precipitation 0.08 in - - ()
Sea Level Pressure  
Sea Level Pressure 29.74 in    
Wind  
Wind Speed 7 mph ()    
Max Wind Speed 13 mph    
Max Gust Speed -    
Visibility 2.3 miles    
Events Fog , Rain    
Averages and records for this station are not official NWS values.
T = Trace of Precipitation, MM = Missing Value Source: Averaged Metar Reports

Daily Weather History Graph

Daily Weather History Graph

Search for Another Location

Airport or City:

Trip Planner

Search our weather history database for the weather conditions in past years. The results will help you decide how hot, cold, wet, or windy it might be!

Date:

Astronomy

Feb. 19, 2014 Rise Set
Actual Time 7:37 AM CET 5:37 PM CET
Civil Twilight 6:59 AM CET 6:14 PM CET
Nautical Twilight 6:17 AM CET 6:57 PM CET
Astronomical Twilight 5:35 AM CET 7:39 PM CET
Moon 11:08 PM CET (2/19) 8:45 AM CET (2/19)
Length of Visible Light 11h 14m
Length of Day
9h 59m
Waning Gibbous, 82% of the Moon is Illuminated
Feb 19
Waning Gibbous
Feb 22
Last Quarter
Mar 1
New
Mar 8
First Quarter
Mar 16
Full

Hourly Weather History & Observations

Time (CET) Temp. Windchill Dew Point Humidity Pressure Visibility Wind Dir Wind Speed Gust Speed Precip Events Conditions
12:00 AM 41 °F - 39 °F 92% 29.78 in 2 mi SSW 6.9 mph - -   Scattered Clouds
12:50 AM 41.0 °F 35.8 °F 39.2 °F 93% 29.74 in 2.2 mi SSW 8.1 mph - N/A   Mostly Cloudy
1:00 AM 41 °F - 39 °F 92% 29.77 in 2 mi SSW 8.1 mph - -   Mist
1:20 AM 41.0 °F 36.4 °F 39.2 °F 93% 29.74 in 1.9 mi SSW 6.9 mph - N/A Rain Rain
1:50 AM 41.0 °F 36.4 °F 39.2 °F 93% 29.74 in 1.6 mi SW 6.9 mph - N/A Rain Light Drizzle
2:00 AM 41 °F - 40 °F 92% 29.76 in 1 mi SW 8.1 mph - -   Overcast
2:20 AM 41.0 °F 36.4 °F 39.2 °F 93% 29.74 in 1.2 mi SW 6.9 mph - N/A   Light Drizzle
2:50 AM 41.0 °F 36.4 °F 39.2 °F 93% 29.71 in 1.2 mi SW 6.9 mph - N/A   Light Drizzle
3:00 AM 41 °F - 40 °F 94% 29.74 in 1 mi SW 6.9 mph - -   Partly Cloudy
3:20 AM 41.0 °F 36.4 °F 41.0 °F 100% 29.71 in 1.2 mi SW 6.9 mph - N/A   Mostly Cloudy
3:50 AM 41.0 °F 35.8 °F 41.0 °F 100% 29.71 in 1.2 mi SW 8.1 mph - N/A   Mostly Cloudy
4:00 AM 41 °F - 40 °F 96% 29.73 in 1 mi SW 6.9 mph - -   Mist
4:20 AM 41.0 °F 36.4 °F 41.0 °F 100% 29.71 in 1.9 mi SW 6.9 mph - N/A   Mostly Cloudy
4:50 AM 41.0 °F 36.4 °F 41.0 °F 100% 29.71 in 1.6 mi SW 6.9 mph - N/A   Light Drizzle
5:00 AM 41 °F - 40 °F 94% 29.72 in 1 mi SW 6.9 mph - -   Overcast
5:20 AM 41.0 °F 36.4 °F 39.2 °F 93% 29.71 in 1.6 mi SW 6.9 mph - N/A   Light Drizzle
5:50 AM 41.0 °F 37.1 °F 39.2 °F 93% 29.68 in 1.2 mi SSW 5.8 mph - N/A   Light Drizzle
6:00 AM 41 °F - 40 °F 93% 29.71 in 1 mi SSW 5.8 mph - -   Partly Cloudy
6:20 AM 41.0 °F 37.1 °F 39.2 °F 93% 29.68 in 1.2 mi SSW 5.8 mph - N/A   Light Drizzle
6:50 AM 41.0 °F 36.4 °F 39.2 °F 93% 29.68 in 1.2 mi SSW 6.9 mph - N/A Rain Rain
7:00 AM 40 °F - 39 °F 97% 29.71 in 1 mi SSW 6.9 mph - - Rain Light Rain
7:20 AM 41.0 °F 36.4 °F 39.2 °F 93% 29.68 in 1.2 mi SW 6.9 mph - N/A Rain Rain
7:50 AM 41.0 °F 36.4 °F 39.2 °F 93% 29.71 in 1.1 mi SW 6.9 mph - N/A Rain Rain
8:00 AM 40 °F - 39 °F 97% 29.72 in 1 mi SSW 6.9 mph - -   Overcast
8:20 AM 41.0 °F 35.8 °F 39.2 °F 93% 29.71 in 0.9 mi SW 8.1 mph - N/A Rain Rain
8:48 AM 41.0 °F 35.8 °F 39.2 °F 93% 29.71 in 0.6 mi SSW 8.1 mph - N/A Rain Light Drizzle
8:50 AM 41.0 °F 35.8 °F 39.2 °F 93% 29.71 in 0.6 mi SSW 8.1 mph - N/A Rain Light Drizzle
9:00 AM 41 °F - 40 °F 93% 29.72 in 1 mi SSW 8.1 mph - -   Overcast
9:20 AM 41.0 °F 36.4 °F 39.2 °F 93% 29.71 in 1.2 mi SSW 6.9 mph - N/A Rain Light Rain
9:50 AM 41.0 °F 36.4 °F 41.0 °F 100% 29.71 in 1.9 mi SW 6.9 mph - N/A   Overcast
10:00 AM 41 °F - 40 °F 97% 29.73 in 2 mi SW 6.9 mph - -   Mist
10:20 AM 41.0 °F 35.8 °F 41.0 °F 100% 29.71 in 0.9 mi SW 8.1 mph - N/A   Overcast
10:35 AM 41.0 °F 35.8 °F 41.0 °F 100% 29.71 in 0.6 mi SW 8.1 mph - N/A   Overcast
10:37 AM 41.0 °F 35.8 °F 41.0 °F 100% 29.71 in 0.6 mi SW 8.1 mph - N/A   Overcast
10:43 AM 41.0 °F 35.8 °F 41.0 °F 100% 29.71 in 0.4 mi SW 8.1 mph - N/A Fog Fog
10:50 AM 42.8 °F 38.0 °F 41.0 °F 93% 29.71 in 0.4 mi SW 8.1 mph - N/A Fog Fog
11:00 AM 42 °F - 41 °F 96% 29.73 in 0 mi SW 9.2 mph - -  
11:20 AM 42.8 °F 38.0 °F 42.8 °F 100% 29.71 in 0.7 mi SW 8.1 mph - N/A   Overcast
11:50 AM 42.8 °F 37.5 °F 42.8 °F 100% 29.71 in 1.2 mi WSW 9.2 mph - N/A   Overcast
12:00 PM 43 °F - 42 °F 97% 29.74 in 1 mi SW 9.2 mph - -   Overcast
12:20 PM 44.6 °F 40.2 °F 42.8 °F 93% 29.71 in 1.9 mi SW 8.1 mph - N/A   Overcast
12:50 PM 44.6 °F 40.2 °F 42.8 °F 93% 29.74 in 2.5 mi WSW 8.1 mph - N/A   Mostly Cloudy
1:00 PM 45 °F - 44 °F 92% 29.74 in 2 mi WSW 9.2 mph - -   Mist
1:20 PM 44.6 °F 39.2 °F 42.8 °F 93% 29.71 in 2.5 mi WSW 10.4 mph - N/A   Mostly Cloudy
1:50 PM 44.6 °F 39.2 °F 42.8 °F 93% 29.71 in 2.5 mi West 10.4 mph - N/A   Mostly Cloudy
2:00 PM 45 °F - 43 °F 89% 29.74 in - West 12.7 mph - -   Partly Cloudy
2:20 PM 44.6 °F 39.2 °F 42.8 °F 93% 29.74 in 5.0 mi West 10.4 mph - N/A   Mostly Cloudy
2:50 PM 44.6 °F 39.7 °F 42.8 °F 93% 29.74 in 5.0 mi West 9.2 mph - N/A   Mostly Cloudy
3:00 PM 45 °F - 43 °F 88% 29.74 in - West 8.1 mph - -   Scattered Clouds
3:20 PM 44.6 °F 40.2 °F 42.8 °F 93% 29.74 in 3.1 mi WSW 8.1 mph - N/A Rain Light Rain Showers
3:34 PM 44.6 °F 39.7 °F 42.8 °F 93% 29.74 in 1.2 mi West 9.2 mph - N/A Rain Light Rain Showers
3:50 PM 44.6 °F 40.7 °F 42.8 °F 93% 29.74 in 5.0 mi West 6.9 mph - N/A   Mostly Cloudy
4:00 PM 44 °F - 42 °F 91% 29.75 in 5 mi West 6.9 mph - -   Mist
4:20 PM 44.6 °F 40.7 °F 42.8 °F 93% 29.74 in 5.0 mi West 6.9 mph - N/A   Mostly Cloudy
4:50 PM 44.6 °F 40.2 °F 42.8 °F 93% 29.74 in 5.0 mi WSW 8.1 mph - N/A   Mostly Cloudy
5:00 PM 44 °F - 42 °F 90% 29.76 in - WSW 8.1 mph - -   Overcast
5:20 PM 42.8 °F 38.0 °F 41.0 °F 93% 29.74 in 5.0 mi WSW 8.1 mph - N/A   Mostly Cloudy
5:50 PM 42.8 °F 38.0 °F 41.0 °F 93% 29.74 in 5.0 mi WSW 8.1 mph - N/A   Mostly Cloudy
6:00 PM 43 °F - 41 °F 89% 29.77 in - WSW 9.2 mph - -   Scattered Clouds
6:20 PM 42.8 °F 37.5 °F 41.0 °F 93% 29.77 in 5.0 mi WSW 9.2 mph - N/A   Mostly Cloudy
6:50 PM 42.8 °F 38.6 °F 41.0 °F 93% 29.77 in 5.0 mi SW 6.9 mph - N/A   Mostly Cloudy
7:00 PM 43 °F - 41 °F 90% 29.78 in 5 mi SW 6.9 mph - -   Mist
7:20 PM 42.8 °F 38.0 °F 41.0 °F 93% 29.77 in 5.0 mi SW 8.1 mph - N/A   Mostly Cloudy
7:50 PM 42.8 °F 37.5 °F 41.0 °F 93% 29.77 in 2.8 mi SW 9.2 mph - N/A   Mostly Cloudy
8:00 PM 43 °F - 41 °F 91% 29.78 in - SW 9.2 mph - -   Overcast
8:20 PM 42.8 °F 38.0 °F 41.0 °F 93% 29.77 in 2.5 mi WSW 8.1 mph - N/A   Overcast
8:50 PM 42.8 °F 37.5 °F 41.0 °F 93% 29.77 in 2.8 mi WSW 9.2 mph - N/A   Overcast
9:00 PM 42 °F - 41 °F 95% 29.79 in 2 mi WSW 9.2 mph - -   Scattered Clouds
9:20 PM 42.8 °F 37.5 °F 41.0 °F 93% 29.77 in 2.8 mi WSW 9.2 mph - N/A Rain Light Rain
9:50 PM 42.8 °F 37.5 °F 41.0 °F 93% 29.77 in 3.1 mi WSW 9.2 mph - N/A   Mostly Cloudy
10:00 PM 42 °F - 41 °F 94% 29.80 in 3 mi WSW 9.2 mph - - Rain Light Rain
10:20 PM 42.8 °F 37.5 °F 41.0 °F 93% 29.77 in 3.7 mi WSW 9.2 mph - N/A   Mostly Cloudy
10:50 PM 42.8 °F 37.0 °F 41.0 °F 93% 29.77 in 4.3 mi WSW 10.4 mph - N/A   Mostly Cloudy
11:00 PM 42 °F - 41 °F 95% 29.80 in - WSW 11.5 mph - -   Overcast
11:20 PM 42.8 °F 36.6 °F 41.0 °F 93% 29.80 in 6.2 mi West 11.5 mph - N/A Rain Light Rain
11:50 PM 42.8 °F 36.6 °F 41.0 °F 93% 29.80 in 6.2 mi West 11.5 mph - N/A   Mostly Cloudy